This is the latest recevied weather packets stored in our database for station/object SALT. If no packets are shown the sender has not sent any weather packets the latest 10 day(s).
| Time | Temp. | Humidity | Pressure | Rain* | Wind** | Luminosity | Snow |
|---|---|---|---|---|---|---|---|
| 1777672531 | 14.44° C | 39% | 1024.3 hPa | 0 mm | - | - | - |
| 1777671929 | 15° C | 39% | 1024.5 hPa | 0 mm | - | - | - |
| 1777671326 | 14.44° C | 39% | 1024.6 hPa | 0 mm | - | - | - |
| 1777670723 | 14.44° C | 37% | 1024.7 hPa | 0 mm | - | - | - |
| 1777670118 | 14.44° C | 36% | 1024.9 hPa | 0 mm | - | - | - |
| 1777669516 | 14.44° C | 36% | 1024.8 hPa | 0 mm | - | - | - |
| 1777668912 | 14.44° C | 38% | 1024.8 hPa | 0 mm | - | - | - |
| 1777668310 | 14.44° C | 36% | 1024.8 hPa | 0 mm | - | - | - |
| 1777667708 | 13.89° C | 37% | 1024.8 hPa | 0 mm | - | - | - |
| 1777667105 | 14.44° C | 36% | 1024.8 hPa | 0 mm | - | - | - |
| 1777666500 | 14.44° C | 36% | 1024.9 hPa | 0 mm | - | - | - |
| 1777665898 | 13.89° C | 37% | 1024.9 hPa | 0 mm | - | - | - |
| 1777665294 | 13.89° C | 37% | 1025 hPa | 0 mm | - | - | - |
| 1777664692 | 14.44° C | 38% | 1024.9 hPa | 0 mm | - | - | - |
| 1777664089 | 13.89° C | 38% | 1025.1 hPa | 0 mm | - | - | - |
| 1777663487 | 13.89° C | 39% | 1025.1 hPa | 0 mm | - | - | - |
| 1777662882 | 13.89° C | 37% | 1025.2 hPa | 0 mm | - | - | - |
| 1777662280 | 13.89° C | 39% | 1025.3 hPa | 0 mm | - | - | - |
| 1777661676 | 13.89° C | 38% | 1025.5 hPa | 0 mm | - | - | - |
| 1777661123 | 13.89° C | 39% | 1025.5 hPa | 0 mm | - | - | - |
| 1777661075 | 13.89° C | 39% | 1025.5 hPa | 0 mm | - | - | - |
| 1777660471 | 13.89° C | 37% | 1025.5 hPa | 0 mm | - | - | - |
| 1777659870 | 13.89° C | 34% | 1025.7 hPa | 0 mm | - | - | - |
| 1777659264 | 13.89° C | 34% | 1025.8 hPa | 0 mm | - | - | - |
| 1777658661 | 13.33° C | 35% | 1025.8 hPa | 0 mm | - | - | - |
* Rain latest 24 hours (hover to see other rain measurements)
** Current wind speed in m/s (hover to see current wind gust speed)